GW4471 Weather Reports


time (UTC)temp
C
wind
direction
speed
KPH
gust
KPH
rain 1hr
cm
rain 24hr
cm
rain mn
cm
humidity
%
barometer
mb
20260509064417 9 320 3.2 6.4 0.15 0.15 0.15 90 1020.0
20260509063418 9 342 6.4 9.7 0.13 0.13 0.13 90 1020.0
20260509061416 9 0.0 1.6 0.05 0.05 0.05 89 1020.3
20260509060417 9 0.0 0.0 0.05 0.05 0.05 89 1020.2
20260509054417 9 0.0 0.0 0.00 0.00 0.00 88 1020.0
20260509053417 9 320 3.2 3.2 0.00 0.00 0.00 88 1020.0
20260509052417 9 320 1.6 3.2 0.00 0.00 0.00 88 1019.9
20260509051417 9 0.0 0.0 0.00 0.00 0.00 88 1019.9
20260509050417 9 0.0 0.0 0.00 0.00 0.00 87 1019.9
20260509045417 9 320 1.6 3.2 0.00 0.00 0.00 87 1019.9
20260509044416 9 0.0 0.0 0.00 0.00 0.00 87 1019.8
20260509043416 9 0.0 0.0 0.00 0.00 0.00 87 1019.7
20260509041417 9 320 1.6 3.2 0.00 0.00 0.00 87 1019.6
20260509040417 9 342 3.2 4.8 0.00 0.00 0.00 86 1019.5
20260509035417 9 0.0 0.0 0.00 0.00 0.00 86 1019.6
20260509034416 9 5 3.2 4.8 0.00 0.00 0.00 86 1019.4
20260509033417 9 27 1.6 4.8 0.00 0.00 0.00 86 1019.5
20260509032417 9 5 3.2 6.4 0.00 0.00 0.00 85 1019.5
20260509031417 9 5 4.8 4.8 0.00 0.00 0.00 85 1019.5
20260509030417 9 342 6.4 9.7 0.00 0.00 0.00 85 1019.6
20260509024416 9 5 4.8 8.0 0.00 0.00 0.00 84 1019.6
20260509023417 9 342 3.2 6.4 0.00 0.00 0.00 83 1019.7
20260509021417 9 342 3.2 4.8 0.00 0.00 0.00 83 1019.7
20260509020417 9 320 4.8 6.4 0.00 0.00 0.00 82 1019.5
20260509015416 10 5 3.2 8.0 0.00 0.00 0.00 82 1019.6
20260509014416 10 27 3.2 4.8 0.00 0.00 0.00 82 1019.6
20260509013417 10 342 3.2 4.8 0.00 0.00 0.00 82 1019.6
20260509012417 10 27 4.8 6.4 0.00 0.00 0.00 81 1019.6
20260509011416 10 27 3.2 6.4 0.00 0.00 0.00 81 1019.7
20260509010416 10 5 1.6 4.8 0.00 0.00 0.00 81 1019.7
20260509005417 10 342 3.2 4.8 0.00 0.00 0.00 80 1019.6
20260509004416 10 342 3.2 4.8 0.00 0.00 0.00 79 1019.6
20260509003416 10 5 1.6 3.2 0.00 0.00 0.00 79 1019.7
20260509002417 10 27 1.6 3.2 0.00 0.00 0.00 79 1019.6
20260509001417 10 5 4.8 9.7 0.00 0.00 0.00 78 1019.5
20260509000418 10 5 4.8 9.7 0.00 0.00 0.00 78 1019.5
20260508235416 10 5 1.6 3.2 0.00 0.00 0.00 77 1019.5
20260508234421 10 27 4.8 6.4 0.00 0.00 0.00 77 1019.6
20260508233416 10 5 1.6 4.8 0.00 0.00 0.00 76 1019.6
20260508232417 10 5 1.6 4.8 0.00 0.00 0.00 76 1019.6
20260508231416 10 27 4.8 6.4 0.00 0.00 0.00 76 1019.6
20260508230416 10 5 3.2 4.8 0.00 0.00 0.00 76 1019.6
20260508225416 10 27 1.6 3.2 0.00 0.00 0.00 75 1019.6
20260508223417 11 27 1.6 3.2 0.00 0.00 0.00 75 1019.6
20260508222416 11 5 1.6 3.2 0.00 0.00 0.00 75 1019.5
20260508221416 11 27 3.2 4.8 0.00 0.00 0.00 75 1019.5
20260508220416 11 27 3.2 4.8 0.00 0.00 0.00 75 1019.4
20260508214416 11 27 4.8 6.4 0.00 0.00 0.00 74 1019.2
20260508213416 11 27 3.2 3.2 0.00 0.00 0.00 73 1019.3
20260508212416 11 27 1.6 3.2 0.00 0.00 0.00 73 1019.2
20260508211416 11 27 3.2 9.7 0.00 0.00 0.00 72 1019.3
20260508210416 11 5 3.2 4.8 0.00 0.00 0.00 72 1019.2
20260508205416 12 27 4.8 9.7 0.00 0.00 0.00 71 1019.2
20260508203416 12 27 6.4 9.7 0.00 0.00 0.00 70 1018.9
20260508202416 12 27 4.8 9.7 0.00 0.00 0.00 70 1018.9
20260508201417 12 5 3.2 3.2 0.00 0.00 0.00 69 1018.7
20260508200416 12 342 4.8 6.4 0.00 0.00 0.00 68 1018.6
20260508194416 13 5 1.6 3.2 0.00 0.00 0.00 67 1018.4
20260508193416 13 342 1.6 3.2 0.00 0.00 0.00 67 1018.3
20260508192416 13 27 1.6 6.4 0.00 0.00 0.00 66 1018.1
20260508185416 13 27 1.6 3.2 0.00 0.00 0.00 66 1017.6
20260508184416 13 27 4.8 6.4 0.00 0.00 0.00 65 1017.6
20260508183415 14 27 6.4 11.3 0.00 0.00 0.00 66 1017.7
20260508181416 15 27 6.4 6.4 0.00 0.00 0.00 67 1017.5
20260508180415 15 27 6.4 11.3 0.00 0.00 0.00 67 1017.6
20260508175416 15 27 4.8 9.7 0.00 0.00 0.00 66 1017.5
20260508174415 15 27 3.2 8.0 0.00 0.00 0.00 66 1017.3
20260508173415 15 27 3.2 6.4 0.00 0.00 0.00 65 1017.2
20260508172416 16 5 3.2 8.0 0.00 0.00 0.00 64 1017.1
20260508171416 16 5 1.6 1.6 0.00 0.00 0.00 60 1017.0
20260508170416 16 5 1.6 3.2 0.00 0.00 0.00 62 1016.9
20260508165416 16 50 1.6 4.8 0.00 0.00 0.00 61 1016.8
20260508164415 16 27 6.4 12.9 0.00 0.00 0.00 62 1016.7
20260508163415 16 5 4.8 9.7 0.00 0.00 0.00 60 1016.9
20260508162416 16 5 1.6 3.2 0.00 0.00 0.00 58 1016.8
20260508161416 17 50 4.8 8.0 0.00 0.00 0.00 59 1016.7
20260508160415 16 27 8.0 11.3 0.00 0.00 0.00 61 1016.8
20260508154416 16 5 3.2 6.4 0.00 0.00 0.00 61 1016.9
20260508150415 16 0.0 1.6 0.00 0.00 0.00 62 1017.0
20260508144415 16 95 3.2 4.8 0.00 0.00 0.00 63 1016.9
20260508143418 16 27 6.4 11.3 0.00 0.00 0.00 63 1017.1
20260508142418 16 5 9.7 14.5 0.00 0.00 0.00 63 1017.1
20260508141417 16 342 3.2 4.8 0.00 0.00 0.00 63 1017.1
20260508140418 16 5 3.2 6.4 0.00 0.00 0.00 63 1017.1
20260508135417 16 5 4.8 6.4 0.00 0.00 0.00 62 1017.3
20260508134418 16 27 1.6 4.8 0.00 0.00 0.00 60 1017.3
20260508133417 16 140 1.6 4.8 0.00 0.00 0.00 60 1017.3
20260508132417 16 117 3.2 4.8 0.00 0.00 0.00 59 1017.4
20260508131418 16 95 1.6 3.2 0.00 0.00 0.00 60 1017.3
20260508130417 16 72 3.2 11.3 0.00 0.00 0.00 59 1017.4
20260508125417 16 185 1.6 3.2 0.00 0.00 0.00 57 1017.5
20260508124418 16 117 1.6 4.8 0.00 0.00 0.00 59 1017.6
20260508123417 16 275 1.6 6.4 0.00 0.00 0.00 60 1017.6
20260508122417 15 95 1.6 3.2 0.00 0.00 0.00 62 1017.6
20260508121418 14 5 6.4 11.3 0.00 0.00 0.00 65 1017.7
20260508120418 13 0.0 1.6 0.00 0.00 0.00 65 1017.7
20260508115418 13 0.0 3.2 0.00 0.00 0.00 67 1017.7
20260508114418 13 207 3.2 6.4 0.00 0.00 0.00 65 1017.8
20260508112417 14 207 4.8 11.3 0.00 0.00 0.00 65 1017.7
20260508111417 14 72 3.2 6.4 0.00 0.00 0.00 65 1017.6
20260508110418 14 72 1.6 3.2 0.00 0.00 0.00 64 1017.7
20260508105417 14 185 6.4 14.5 0.00 0.00 0.00 61 1017.7
20260508104417 15 162 1.6 3.2 0.00 0.00 0.00 65 1017.7
20260508102417 16 95 4.8 11.3 0.00 0.00 0.00 63 1017.6
20260508101418 16 72 1.6 3.2 0.00 0.00 0.00 65 1017.5
20260508095418 15 117 1.6 3.2 0.00 0.00 0.00 68 1017.5
20260508094417 15 117 1.6 4.8 0.00 0.00 0.00 68 1017.4
20260508093418 14 185 3.2 4.8 0.00 0.00 0.00 70 1017.4
20260508092417 13 95 1.6 6.4 0.00 0.00 0.00 74 1017.5
20260508090418 12 27 4.8 6.4 0.00 0.00 0.00 77 1017.3
20260508085417 11 50 1.6 3.2 0.00 0.00 0.00 78 1017.2
20260508084417 11 342 3.2 4.8 0.00 0.00 0.00 79 1017.3
20260508083418 11 95 1.6 3.2 0.00 0.00 0.00 79 1017.1
20260508082418 11 95 3.2 4.8 0.00 0.00 0.00 79 1017.0
20260508081417 11 27 1.6 3.2 0.00 0.00 0.00 80 1016.9
20260508080417 11 140 3.2 3.2 0.00 0.00 0.00 79 1017.1
20260508075417 11 0.0 1.6 0.00 0.00 0.00 81 1017.1
20260508073416 10 0.0 0.0 0.00 0.00 0.00 83 1017.1
20260508071416 10 162 1.6 1.6 0.00 0.00 0.00 85 1016.7
20260508070418 10 95 1.6 3.2 0.00 0.00 0.00 86 1016.6
20260508065418 9 0.0 0.0 0.00 0.00 0.00 88 1016.7